CZ-3C DEB, 39353

Orbit data source: Space-Track

CZ-3C DEB, 39353 is space debris in HEO originally from a launch on Sun, 31 Oct 2010 UTC launched from the Xichang Space Center, China (XSC). Debris objects in space refer to the collection of defunct objects orbiting the Earth. Examples of debris include non-operational satellites, rocket bodies, and fragments generated from explosions, collisions, or faulty payload assembly.

Loading next visibility...
Identifier
39353, 2010-057T
Orbit
HEO
Country
Flag of CNCN / PRC
Related business
Manufacturer
CALT
Mission
Spacecraft
Bus & Motor
Unknown
Mass
Unknown
Launch date (UTC)
2010-10-31 (15 years ago)
Launch vehicle
Unknown
Launch site
Xichang Space Center, China (XSC)
Object type
Payload
Rocket body
Debris
Shape & HBR
Unknown shape, 0.3 m
Radar Cross Section
Medium (>0.1 m² and <1 m²)

Expand to show TLE details & history
Last TLE update: 5 days ago

TLE from 5 days ago
0 CZ-3C DEB
1 39353U 10057T   26107.35860822 -.00000166  00000-0 -23006-2 0  9994
2 39353  19.9495  98.8592 7163054 167.1764 356.3338  2.24420368102422
Epoch: 2026-04-17T08:36Z
TLE epoch observation values (Epoch: 2026-04-17T08:36:23.750Z)
Latitude
13.2858°
Longitude
-96.17553°
Altitude
1,017.392 km
Speed
9.572 km/s
True Right ascension
15h 53m 39s
True Declination
13° 12' 42"
Sunlit
Object was in full shadow at epoch
Visualization orbit readout
Latitude
Unknown
Longitude
Unknown
Altitude
Unknown
Speed
Unknown
Apparent Right ascension
Unknown
Apparent Declination
Unknown
Sunlit
N/A
Visualization observer readout
Local Sidereal Time
17:50:56
Azimuth
Unknown
Elevation
Unknown
Doppler factor
Unknown
Orbital elements
Apogee altitude
35,924.264 km
Perigee altitude
614.187 km
Semi-major axis
24,647.362 km
Eccentricity
0.71631
Inclination
19.9495°
RAAN
98.8592°
Arg. of periapsis
167.1764°
True anomaly
329.4688°
Mean anomaly
356.3338°
Eccentric anomaly
347.33663°
Mean motion
0.5609 °/min
Orbital period
641.82 mins
BSTAR
-0.0023006
Loading maneuver chart data...
Computing Atmospheric mass density...
Loading historical data...
Loading historical data...
Loading historical data...
Loading historical data...
Loading historical data...
Loading historical data...
Loading historical data...

Documentation

Showing up to 5 results
|